PBO Station Position Time Series. Reference Frame : NAM14
Format Version,1.1.1
4-character ID,WASG
Station name,Alta_Sierra_GPS
Begin Date, 2015-07-16
End Date, 2023-06-26
Release Date, 2023-06-27
Reference position, 35.7383895783 North Latitude, -118.5569798173 East Longitude, 1834.93248 meters elevation,
Date, North (mm), East (mm), Vertical (mm), North Std. Deviation (mm), East Std. Deviation (mm),              Vertical Std. Deviation (mm), Quality,
2015-07-16,0.00, 0.00, 0.00, 3.32, 2.67, 13.04, repro,
2015-07-17,-5.85, 2.36, 3.21, 4.07, 3.33, 16.15, repro,
2015-07-18,-1.88, 3.68, -6.67, 4.16, 3.14, 16.84, repro,
2015-07-19,-2.65, 4.58, 1.30, 3.34, 2.60, 13.02, repro,
2015-07-20,-5.18, 3.05, 5.74, 3.52, 2.76, 13.61, repro,
2015-07-21,-4.81, 2.35, -2.48, 3.38, 2.71, 13.53, repro,
2015-07-22,-1.48, 2.02, -7.70, 3.24, 2.65, 13.27, repro,
2015-07-23,-0.93, 4.20, 7.60, 3.29, 2.63, 12.75, repro,
2015-07-24,0.27, 10.67, -5.16, 3.35, 2.64, 13.06, repro,
2015-07-25,-0.60, 5.85, -4.99, 3.30, 2.68, 13.11, repro,
2015-07-26,1.29, 4.54, -19.78, 3.23, 2.67, 13.07, repro,
2015-07-27,-0.53, -0.52, 2.03, 3.41, 2.63, 13.28, repro,
2015-07-28,-4.99, 3.60, 1.35, 3.46, 2.64, 13.38, repro,
2015-07-29,-3.52, 4.71, -5.40, 3.37, 2.65, 13.03, repro,
2015-07-30,1.34, 7.05, 2.12, 3.47, 2.71, 13.21, repro,
2015-07-31,-1.05, 3.95, 3.28, 3.34, 2.71, 13.22, repro,
2015-08-01,0.76, 2.81, 0.06, 3.28, 2.67, 13.09, repro,
2015-08-02,-3.54, 3.98, -6.70, 3.49, 2.66, 13.24, repro,
2015-08-03,-5.89, 3.38, 5.60, 3.22, 2.53, 12.49, repro,
2015-08-04,1.04, 6.78, -13.49, 3.29, 2.60, 12.80, repro,
2015-08-05,-0.06, 5.54, 5.64, 3.55, 2.66, 13.31, repro,
2015-08-06,-1.24, 3.32, 9.53, 3.65, 3.16, 15.34, repro,
2015-08-07,-2.60, 3.35, -0.89, 3.38, 2.67, 13.48, repro,
2015-08-08,-2.88, 6.43, -10.06, 3.54, 2.85, 14.00, repro,
2015-08-09,-6.62, 2.01, 10.43, 3.46, 2.65, 13.17, repro,
2015-08-10,0.02, 7.97, -5.63, 3.28, 2.58, 12.93, repro,
2015-08-11,-3.16, 3.98, 17.54, 3.38, 2.71, 13.69, repro,
2015-08-12,4.47, 6.13, -25.65, 3.22, 2.62, 13.26, repro,
2015-08-13,-3.88, 4.98, -19.54, 3.36, 2.65, 13.48, repro,
2015-08-14,-1.13, 3.59, -0.06, 3.10, 2.50, 12.22, repro,
2015-08-15,-0.03, 2.40, 1.38, 3.27, 2.57, 12.54, repro,
2015-08-16,-2.07, 3.35, 25.03, 3.34, 2.65, 13.18, repro,
2015-08-17,4.81, 7.44, -8.48, 3.31, 2.89, 13.90, repro,
2015-08-18,2.59, 5.45, -6.29, 3.25, 2.63, 13.04, repro,
2015-08-19,-0.88, -0.34, -2.15, 3.41, 2.68, 13.20, repro,
2015-08-20,-1.26, 3.73, 13.61, 3.68, 3.01, 14.88, repro,
2015-08-21,-1.24, 3.34, 11.46, 3.25, 2.56, 12.82, repro,
2015-08-22,5.76, 7.93, -31.88, 3.62, 3.11, 14.24, repro,
2015-08-23,2.95, 7.88, -9.45, 3.26, 2.79, 13.29, repro,
2015-08-24,4.76, 9.31, -28.42, 3.18, 2.57, 12.44, repro,
2015-08-25,-8.42, 1.62, 8.88, 3.11, 2.53, 12.25, repro,
2015-08-26,-8.51, 3.44, 11.44, 3.18, 2.65, 13.18, repro,
2015-08-27,-2.40, -2.49, -1.85, 3.89, 3.19, 16.64, repro,
2015-08-28,-2.72, 2.92, -2.23, 3.21, 2.65, 12.94, repro,
2015-08-29,-0.30, 5.90, 4.26, 4.04, 3.37, 16.35, repro,
2015-08-30,1.89, 1.43, -17.29, 3.21, 2.60, 12.97, repro,
2015-08-31,-1.45, 3.03, -6.89, 3.30, 2.72, 13.67, repro,
2015-09-01,-1.69, 0.24, 6.57, 3.33, 2.69, 12.95, repro,
2015-09-02,2.68, 2.85, 14.92, 4.55, 3.83, 18.59, repro,
2015-09-03,-1.53, -1.80, -12.48, 3.35, 2.61, 13.13, repro,
2015-09-04,1.41, 4.05, -13.61, 3.26, 2.72, 14.12, repro,
2015-09-05,-2.32, 5.39, -6.80, 3.58, 2.74, 13.72, repro,
2015-09-06,-2.45, 5.18, -5.41, 4.37, 3.46, 17.58, repro,
2015-09-07,-3.34, 0.18, 25.79, 4.47, 3.33, 16.57, repro,
2015-09-08,9.35, 3.68, -23.22, 4.56, 4.01, 19.81, repro,
2015-09-09,-0.49, 5.13, -6.73, 4.78, 4.18, 20.07, repro,
2015-09-10,0.33, 6.32, 0.26, 6.38, 5.71, 28.55, repro,
2015-09-11,0.15, 8.12, 53.90, 5.38, 5.13, 26.82, repro,
2015-09-12,2.42, -2.35, 7.99, 5.63, 5.01, 28.05, repro,
2015-09-13,11.24, -15.63, -154.81, 10.44, 8.47, 62.13, repro,
2015-09-14,-4.76, 2.56, 0.07, 5.20, 5.41, 26.83, repro,
2015-09-15,-2.95, -2.28, 7.28, 7.13, 6.19, 32.46, repro,
2015-09-16,5.17, 13.22, 34.87, 7.70, 6.94, 37.00, repro,
2015-09-17,-11.15, 4.25, 21.33, 7.78, 8.41, 45.68, repro,
2015-09-18,-0.27, -5.32, 9.07, 6.81, 8.89, 43.18, repro,
2015-09-19,0.45, 3.29, 10.24, 5.62, 5.58, 25.13, repro,
2015-09-20,3.33, -0.07, -27.91, 5.56, 5.30, 26.69, repro,
2015-09-21,4.00, 13.67, -7.85, 5.61, 6.28, 31.61, repro,
2015-09-22,9.37, 11.46, -3.09, 6.59, 8.22, 42.42, repro,
2015-09-23,-0.78, 5.08, -0.75, 5.44, 5.35, 26.34, repro,
2015-09-24,5.14, 16.34, -26.12, 7.40, 8.51, 40.83, repro,
2015-09-25,7.54, 2.35, -42.62, 5.82, 5.91, 29.47, repro,
2015-09-26,5.97, 5.43, -36.85, 5.39, 6.51, 26.69, repro,
2015-09-27,8.39, 12.18, 19.54, 5.41, 5.38, 26.57, repro,
2015-09-28,5.07, 5.85, -16.07, 6.26, 6.57, 30.40, repro,
2015-09-29,3.47, 3.04, -62.23, 6.51, 5.86, 33.60, repro,
2015-09-30,7.66, 15.33, 6.28, 7.62, 10.19, 37.61, repro,
2015-10-01,-3.53, 11.37, 61.02, 6.58, 6.58, 28.65, repro,
2015-10-02,-2.56, 13.19, -18.24, 9.64, 6.43, 27.49, repro,
2015-10-03,0.70, 18.98, -9.57, 7.60, 6.80, 34.88, repro,
2015-10-04,15.93, 12.69, -40.68, 8.30, 7.12, 37.37, repro,
2015-10-05,9.90, 17.08, 42.98, 17.69, 16.00, 124.52, repro,
2015-10-06,10.87, 22.37, -51.91, 13.73, 18.91, 73.67, repro,
2015-10-07,-13.30, 5.76, -26.48, 11.67, 9.72, 55.99, repro,
2015-10-08,-6.67, -49.29, -23.62, 39.11, 95.54, 378.95, repro,
2015-10-09,4.15, 14.32, 37.45, 8.78, 10.77, 47.15, repro,
2015-10-10,-7.30, -2.82, -26.62, 15.29, 15.12, 57.04, repro,
2015-10-11,29.66, 18.12, -24.81, 13.68, 9.61, 43.96, repro,
2015-10-12,-2.89, 13.42, 62.78, 11.08, 9.71, 39.74, repro,
2015-10-13,31.18, 22.31, -74.97, 11.34, 8.49, 47.45, repro,
2015-10-14,3.25, 15.05, 128.14, 8.55, 13.09, 65.65, repro,
2015-10-15,-0.73, -1.87, 34.49, 8.74, 10.34, 38.07, repro,
2015-10-16,13.13, 0.19, -59.25, 11.85, 9.34, 50.09, repro,
2015-10-17,-16.50, -12.70, 18.06, 10.65, 10.82, 41.45, repro,
2015-10-18,-3.89, -30.65, -73.67, 13.91, 27.91, 82.36, repro,
2015-10-19,1.59, -15.26, -94.32, 11.45, 19.81, 64.65, repro,
2015-10-20,42.52, -111.01, -492.07, 29.54, 82.54, 359.64, repro,
2015-10-21,-43.09, -153.21, 17.20, 51.05, 29.97, 227.59, repro,
2015-10-22,-79.12, -51.46, -623.80, 120.35, 51.67, 461.19, repro,
2015-10-23,13.52, -0.93, -15.39, 9.53, 8.18, 41.11, repro,
2015-10-24,0.55, 74.43, -79.03, 17.90, 50.62, 182.32, repro,
2015-10-25,-14.96, -80.61, -3.74, 12.32, 13.44, 69.65, repro,
2015-10-26,-22.82, 43.13, 138.50, 117.73, 530.10, 685.56, repro,
2015-10-27,11.50, 19.71, -7.55, 6.47, 10.04, 41.32, repro,
2015-10-28,1.01, -1.98, 27.78, 13.50, 8.64, 63.98, repro,
2015-10-29,8.85, 9.11, -0.60, 10.90, 9.39, 48.27, repro,
2015-10-30,4.63, 72.39, 52.56, 19.44, 109.80, 192.02, repro,
2015-10-31,15.37, 13.94, 0.81, 26.73, 22.08, 82.44, repro,
2015-11-01,-5.13, 68.09, -164.30, 12.77, 24.16, 98.95, repro,
2015-11-02,-3.31, 15.12, -8.15, 12.56, 8.36, 66.33, repro,
2015-11-03,5.69, 55.80, 77.87, 11.13, 15.51, 56.07, repro,
2015-11-04,43.22, -9.74, -217.33, 30.91, 23.18, 152.48, repro,
2015-11-18,-10.85, -6.86, 44.30, 14.78, 12.52, 66.74, repro,
2015-11-19,-0.49, 6.16, -22.93, 2.87, 2.52, 12.08, repro,
2015-11-20,0.34, 5.63, -4.08, 2.96, 2.53, 12.17, repro,
2015-11-21,-5.69, 2.86, -0.11, 2.93, 2.58, 12.17, repro,
2015-11-22,-2.15, 1.98, 1.56, 2.99, 2.60, 12.57, repro,
2015-11-23,0.14, 1.04, -9.13, 3.23, 2.67, 13.35, repro,
2015-11-24,-1.38, 3.96, -18.58, 2.89, 2.49, 12.03, repro,
2015-11-25,2.69, 4.75, -18.78, 2.88, 2.51, 12.04, repro,
2015-11-26,-2.13, 7.07, 2.91, 2.84, 2.48, 11.77, repro,
2015-11-27,-3.25, 3.77, -3.62, 2.66, 2.39, 11.02, repro,
2015-11-28,-3.96, 1.10, 3.10, 2.73, 2.39, 11.57, repro,
2015-11-29,-3.46, 0.86, -8.75, 2.70, 2.44, 11.29, repro,
2015-11-30,1.35, 4.48, -27.71, 2.85, 2.55, 11.99, repro,
2015-12-01,-0.77, 2.68, 4.55, 3.01, 2.66, 12.46, repro,
2015-12-02,0.09, 5.28, -7.75, 2.87, 2.55, 12.17, repro,
2015-12-03,-5.18, 3.82, 6.26, 3.22, 2.93, 13.80, repro,
2015-12-04,0.90, 4.10, -12.20, 2.98, 2.57, 12.34, repro,
2015-12-05,3.70, 3.10, -17.77, 2.95, 2.52, 12.16, repro,
2015-12-06,1.11, 4.59, -24.38, 3.00, 2.62, 12.66, repro,
2015-12-07,-0.48, 7.37, -11.87, 3.26, 3.04, 14.18, repro,
2015-12-08,-3.22, 8.13, -2.44, 2.99, 2.67, 12.95, repro,
2015-12-09,-2.49, 6.40, -14.38, 2.98, 2.62, 12.60, repro,
2015-12-10,-3.68, 1.34, -4.01, 3.17, 2.80, 13.27, repro,
2015-12-11,3.34, 1.79, -38.65, 3.16, 2.70, 12.62, repro,
2015-12-12,0.39, 0.38, -43.67, 3.13, 2.76, 13.28, repro,
2015-12-13,-4.79, 5.03, 15.31, 3.11, 2.72, 13.20, repro,
2015-12-14,-7.24, 0.75, -6.88, 2.86, 2.55, 11.76, repro,
2015-12-15,-4.84, 5.84, -7.47, 2.75, 2.49, 11.53, repro,
2015-12-16,1.27, 1.73, -21.94, 2.79, 2.50, 11.62, repro,
2015-12-17,3.70, -3.06, -37.59, 2.89, 2.57, 11.93, repro,
2015-12-18,-0.85, 1.53, -18.02, 2.89, 2.52, 12.28, repro,
2015-12-19,-1.03, 5.90, -17.68, 2.94, 2.59, 12.50, repro,
2015-12-20,-9.84, -2.89, -7.89, 3.04, 2.69, 12.81, repro,
2015-12-21,-1.01, -2.95, -42.73, 3.03, 2.64, 12.74, repro,
2015-12-22,4.99, 2.83, -13.65, 3.21, 2.80, 13.94, repro,
2015-12-23,-0.21, 1.56, -4.33, 3.32, 2.77, 13.91, repro,
2015-12-24,3.32, 7.27, -14.08, 3.00, 2.74, 12.87, repro,
2015-12-25,-3.93, 3.29, -5.66, 3.07, 2.75, 13.06, repro,
2015-12-26,-2.39, 4.28, -20.78, 2.85, 2.63, 12.08, repro,
2015-12-27,-2.31, 0.71, -15.16, 2.76, 2.44, 11.35, repro,
2015-12-28,-1.14, 3.91, -21.48, 2.72, 2.48, 11.68, repro,
2015-12-29,-2.57, 4.35, -14.58, 2.63, 2.47, 11.53, repro,
2015-12-30,-2.87, 2.37, -18.72, 2.81, 2.48, 11.68, repro,
2015-12-31,-0.19, 1.11, -24.02, 2.90, 2.69, 12.81, repro,
2016-01-01,-1.27, 0.73, -5.03, 2.74, 2.41, 11.22, repro,
2016-01-02,-3.53, 3.11, -2.73, 2.93, 2.69, 12.42, repro,
2016-01-03,1.49, -0.70, -11.27, 2.86, 2.51, 12.25, repro,
2016-01-04,2.26, 5.11, -31.96, 2.86, 2.57, 11.97, repro,
2016-01-05,-2.80, 3.73, -12.49, 3.14, 2.75, 13.10, repro,
2016-01-06,-10.47, -3.43, -42.08, 3.23, 2.83, 14.12, repro,
2016-01-07,-12.81, -0.44, -30.35, 3.43, 2.86, 14.08, repro,
2016-01-08,-1.70, 1.20, -41.02, 3.24, 2.83, 13.69, repro,
2016-01-09,-1.41, 4.22, -22.89, 3.33, 3.01, 14.39, repro,
2016-01-10,1.99, 5.53, -20.75, 5.10, 3.90, 18.74, repro,
2016-01-11,1.13, 2.83, -25.00, 2.96, 2.55, 12.08, repro,
2016-01-12,-2.03, 3.89, -32.01, 3.20, 3.02, 13.23, repro,
2016-01-13,0.48, 4.23, -30.92, 2.99, 2.54, 12.17, repro,
2016-01-14,4.86, 2.89, -34.34, 3.09, 2.57, 12.76, repro,
2016-01-15,1.65, 5.01, -20.89, 3.34, 2.75, 13.11, repro,
2016-01-16,-4.00, 1.02, -16.67, 3.11, 2.66, 12.69, repro,
2016-01-17,-2.52, 1.37, -27.34, 3.00, 2.55, 11.93, repro,
2016-01-18,0.30, 1.72, -2.10, 3.16, 2.61, 12.72, repro,
2016-01-19,1.63, 5.17, -23.20, 3.13, 2.59, 12.56, repro,
2016-01-20,0.99, 4.89, -22.81, 3.14, 2.55, 12.40, repro,
2016-01-21,-1.43, 3.50, -6.47, 3.05, 2.62, 12.86, repro,
2016-01-22,-1.15, 4.67, -19.43, 3.16, 2.69, 12.97, repro,
2016-01-23,-1.80, 2.05, -13.00, 3.08, 2.54, 12.23, repro,
2016-01-24,1.76, -0.57, -4.64, 2.93, 2.53, 12.10, repro,
2016-01-25,1.87, 2.73, -12.59, 3.04, 2.54, 12.72, repro,
2016-01-26,-0.03, 4.79, -23.74, 3.10, 2.66, 13.29, repro,
2016-01-27,-1.70, 5.92, -22.66, 3.14, 2.67, 12.80, repro,
2016-01-28,1.83, 3.59, -29.84, 3.18, 2.72, 13.36, repro,
2016-01-29,10.21, 1.26, -39.04, 3.23, 2.66, 13.29, repro,
2016-01-30,4.55, 0.77, -32.24, 3.15, 2.63, 13.14, repro,
2016-01-31,-1.49, 6.13, -3.83, 3.50, 2.86, 14.31, repro,
2016-02-01,1.05, 2.27, -27.42, 2.88, 2.62, 12.57, repro,
2016-02-02,-2.77, 4.06, -40.89, 2.87, 2.65, 12.36, repro,
2016-02-03,3.85, 3.17, -25.08, 3.56, 2.91, 15.09, repro,
2016-02-04,3.11, 2.33, -33.51, 3.04, 2.64, 13.10, repro,
2016-02-05,0.68, 3.03, -16.65, 3.11, 2.66, 13.14, repro,
2016-02-06,2.88, 5.66, -24.62, 2.97, 2.59, 12.51, repro,
2016-02-07,2.78, 6.51, -33.94, 3.02, 2.57, 12.58, repro,
2016-02-08,9.16, 7.22, -50.85, 3.16, 2.69, 13.25, repro,
2016-02-09,7.19, 1.97, -22.77, 3.17, 2.78, 13.66, repro,
2016-02-10,5.12, 4.37, -30.72, 3.18, 2.66, 13.36, repro,
2016-02-11,1.67, 4.63, -15.82, 3.08, 2.62, 12.77, repro,
2016-02-12,-0.14, 4.69, -13.39, 2.95, 2.56, 12.95, repro,
2016-02-13,0.78, 9.42, -36.27, 3.98, 3.67, 16.78, repro,
2016-02-14,4.44, 4.04, -37.25, 3.13, 2.63, 12.96, repro,
2016-02-15,2.96, 3.66, -26.29, 3.03, 2.59, 12.32, repro,
2016-02-16,6.30, 6.48, -25.09, 3.14, 2.64, 13.00, repro,
2016-02-17,5.04, 9.08, -10.39, 3.19, 2.76, 13.54, repro,
2016-02-18,6.10, 9.07, -34.06, 3.20, 2.69, 13.28, repro,
2016-02-19,1.34, 4.67, -17.35, 3.39, 3.16, 15.82, repro,
2016-02-20,2.68, 3.10, -14.13, 3.01, 2.62, 12.78, repro,
2016-02-21,4.36, 4.86, -24.71, 3.03, 2.57, 12.63, repro,
2016-02-22,4.09, 6.56, -42.57, 2.99, 2.66, 12.85, repro,
2016-02-23,0.81, 3.19, -26.50, 2.90, 2.50, 12.28, repro,
2016-02-24,2.01, 4.80, -22.07, 3.04, 2.61, 12.40, repro,
2016-02-25,2.86, 3.26, -20.94, 3.16, 2.65, 13.03, repro,
2016-02-26,4.37, 3.54, -29.56, 3.69, 3.20, 16.04, repro,
2016-02-27,-0.48, 2.76, 2.91, 3.42, 3.01, 14.85, repro,
2016-02-28,2.15, 5.19, -26.62, 3.01, 2.76, 13.25, repro,
2016-02-29,-0.41, 1.01, -27.80, 2.96, 2.53, 12.64, repro,
2016-03-01,0.56, 3.31, -23.46, 2.99, 2.53, 12.70, repro,
2016-03-02,-2.21, -0.07, -23.00, 4.17, 3.58, 18.33, repro,
2016-03-03,-0.51, 1.93, -12.23, 3.07, 2.60, 12.86, repro,
2016-03-04,1.65, 4.49, -28.82, 2.90, 2.52, 12.26, repro,
2016-03-05,-2.15, 8.33, -34.32, 3.15, 2.70, 12.81, repro,
2016-03-06,1.06, 5.51, -8.96, 3.14, 2.71, 13.25, repro,
2016-03-07,-1.28, 3.99, -2.22, 3.26, 2.70, 13.24, repro,
2016-03-08,-0.56, 0.32, -20.24, 3.62, 3.39, 15.97, repro,
2016-03-09,3.33, 1.85, -28.43, 2.98, 2.57, 12.37, repro,
2016-03-10,-0.93, 10.34, -15.90, 2.96, 2.76, 12.99, repro,
2016-03-11,-2.89, 8.47, -43.18, 2.89, 2.54, 11.79, repro,
2016-03-12,3.75, 4.49, -45.50, 2.96, 2.67, 13.14, repro,
2016-03-13,1.99, 4.48, -15.38, 3.17, 2.75, 13.21, repro,
2016-03-14,-0.49, 4.07, -17.92, 3.20, 2.78, 13.65, repro,
2016-03-15,0.33, 4.70, -30.75, 3.22, 2.73, 13.86, repro,
2016-03-16,2.23, 7.82, -35.09, 3.10, 2.71, 12.77, repro,
2016-03-17,3.59, 6.49, -31.33, 3.09, 2.86, 13.52, repro,
2016-03-18,2.82, 6.96, -19.68, 3.11, 2.68, 12.70, repro,
2016-03-19,1.65, 6.07, -11.94, 3.03, 2.65, 12.99, repro,
2016-03-20,2.73, 4.30, -29.91, 3.02, 2.59, 12.46, repro,
2016-03-21,0.61, 5.01, -23.73, 2.92, 2.54, 12.38, repro,
2016-03-22,2.01, 6.71, -30.49, 2.99, 2.58, 12.44, repro,
2016-03-23,4.05, 3.47, -28.99, 2.87, 2.47, 11.99, repro,
2016-03-24,1.25, 4.10, -13.34, 2.88, 2.49, 12.05, repro,
2016-03-25,-1.80, 8.49, -1.85, 3.02, 2.57, 12.43, repro,
2016-03-26,-1.15, 2.74, -7.29, 2.90, 2.47, 12.08, repro,
2016-03-27,-1.18, 3.34, -25.70, 2.96, 2.67, 12.70, repro,
2016-03-28,-0.43, 2.29, -18.10, 2.97, 2.52, 12.41, repro,
2016-03-29,6.90, 1.95, -11.35, 2.90, 2.45, 11.93, repro,
2016-03-30,-1.40, 5.73, -9.32, 2.94, 2.47, 12.00, repro,
2016-03-31,-0.45, 4.48, 6.75, 3.36, 2.85, 14.07, repro,
2016-04-01,-2.86, 2.83, -18.78, 3.03, 2.49, 12.09, repro,
2016-04-02,-1.06, 3.54, -19.78, 2.99, 2.63, 12.71, repro,
2016-04-03,-1.89, 4.47, -12.60, 3.11, 2.59, 12.58, repro,
2016-04-04,1.25, 8.87, -0.77, 3.02, 2.64, 12.35, repro,
2016-04-05,3.10, 6.73, -23.68, 2.91, 2.44, 11.79, repro,
2016-04-06,2.24, 5.30, -14.72, 3.07, 2.69, 13.01, repro,
2016-04-07,0.94, 2.32, -17.39, 2.96, 2.60, 12.59, repro,
2016-04-08,0.39, 2.49, -25.37, 2.89, 2.51, 11.99, repro,
2016-04-09,4.22, 4.99, -25.10, 3.08, 2.66, 12.64, repro,
2016-04-10,5.29, 12.33, -15.93, 2.99, 2.62, 12.41, repro,
2016-04-11,0.32, 6.36, -25.39, 2.99, 2.64, 12.62, repro,
2016-04-12,4.92, 3.72, -27.10, 3.02, 2.62, 12.59, repro,
2016-04-13,1.67, 0.58, -25.44, 2.98, 2.56, 12.24, repro,
2016-04-14,3.62, 2.24, -14.02, 3.15, 2.74, 13.63, repro,
2016-04-15,1.03, 5.42, 6.06, 3.12, 2.64, 12.42, repro,
2016-04-16,-1.29, 5.72, -24.01, 2.93, 2.52, 12.40, repro,
2016-04-17,4.75, 7.25, -14.16, 2.93, 2.59, 12.43, repro,
2016-04-18,4.73, 4.70, -18.15, 3.53, 3.04, 15.04, repro,
2016-04-19,4.92, 0.84, -16.84, 3.08, 2.77, 13.77, repro,
2016-04-20,1.46, 3.24, -3.70, 3.07, 2.77, 13.84, repro,
2016-04-21,3.18, 3.66, -15.11, 2.96, 2.58, 12.30, repro,
2016-04-22,3.74, 7.79, -3.26, 2.94, 2.60, 12.37, repro,
2016-04-23,-0.37, 3.75, -11.47, 3.24, 2.78, 13.40, repro,
2016-04-24,2.12, 1.19, -0.62, 2.93, 2.65, 12.53, repro,
2016-04-25,5.69, 3.73, -18.74, 2.88, 2.65, 12.39, repro,
2016-04-26,3.49, 5.48, -0.02, 2.86, 2.63, 12.05, repro,
2016-04-27,3.53, 4.12, 1.98, 3.01, 2.63, 12.66, repro,
2016-04-28,0.32, 6.65, -19.30, 2.84, 2.49, 11.97, repro,
2016-04-29,3.59, 7.12, -28.37, 2.80, 2.51, 12.00, repro,
2016-04-30,2.07, 0.36, -0.29, 3.09, 2.73, 12.89, repro,
2016-05-01,4.42, 2.53, -32.33, 2.89, 2.51, 12.09, repro,
2016-05-02,2.10, 4.32, -7.83, 3.04, 2.57, 12.12, repro,
2016-05-03,2.01, 2.63, -12.40, 3.00, 2.63, 12.58, repro,
2016-05-04,-0.68, 3.01, -15.43, 2.94, 2.56, 12.32, repro,
2016-05-05,0.47, 0.23, -15.02, 3.13, 2.77, 14.00, repro,
2016-05-06,-1.39, 2.29, -11.55, 4.07, 3.44, 17.91, repro,
2016-05-07,3.08, 6.51, -17.55, 3.13, 2.76, 13.18, repro,
2016-05-08,-0.41, 5.61, -11.94, 3.09, 2.85, 13.60, repro,
2016-05-09,1.18, 6.86, -24.80, 3.05, 2.75, 13.42, repro,
2016-05-10,1.25, 4.04, -12.33, 3.00, 2.67, 13.00, repro,
2016-05-11,2.79, 4.84, -27.19, 3.15, 2.85, 13.63, repro,
2016-05-12,6.20, 3.28, -43.85, 3.02, 2.67, 12.92, repro,
2016-05-13,-3.17, 8.73, -17.17, 3.16, 2.75, 13.03, repro,
2016-05-14,2.21, 7.15, -25.73, 3.00, 2.75, 13.01, repro,
2016-05-15,0.62, 4.53, 13.47, 2.97, 2.66, 12.40, repro,
2016-05-16,-5.25, 6.69, 15.04, 3.28, 2.89, 13.40, repro,
2016-05-17,-2.19, 1.72, -24.04, 3.30, 3.09, 14.62, repro,
2016-05-18,-0.02, 7.00, -24.71, 3.08, 2.75, 13.11, repro,
2016-05-19,-2.16, 5.34, -14.81, 3.31, 2.80, 13.65, repro,
2016-05-20,2.62, 4.60, 8.33, 3.25, 2.93, 13.90, repro,
2016-05-21,2.57, 12.42, -29.20, 3.51, 3.10, 15.38, repro,
2016-05-22,-0.11, 5.38, -4.02, 3.14, 2.74, 13.14, repro,
2016-05-23,2.13, 6.22, -2.71, 3.16, 2.69, 12.96, repro,
2016-05-24,-1.35, 7.29, -10.56, 3.36, 2.83, 13.95, repro,
2016-05-25,0.90, 7.34, 1.58, 3.13, 2.78, 12.89, repro,
2016-05-26,-0.90, 6.69, -19.94, 3.26, 3.02, 14.44, repro,
2016-05-27,-2.19, 1.02, -23.36, 4.12, 3.25, 17.08, repro,
2016-05-28,-0.80, -2.39, -8.86, 3.30, 2.83, 13.54, repro,
2016-05-29,-1.01, 6.59, -29.38, 3.25, 2.85, 13.27, repro,
2016-05-30,-3.18, 6.93, -7.13, 3.49, 3.22, 15.30, repro,
2016-05-31,-2.39, 6.00, -9.53, 3.31, 2.96, 14.22, repro,
2016-06-01,-4.64, 3.40, -0.24, 3.18, 2.79, 12.67, repro,
2016-06-02,-7.76, 1.85, 0.84, 3.35, 2.86, 13.77, repro,
2016-06-03,1.13, 9.27, -11.78, 3.31, 2.78, 13.59, repro,
2016-06-04,-2.01, 6.10, -17.74, 3.26, 2.89, 13.69, repro,
2016-06-05,-7.20, 5.78, 0.00, 4.65, 4.01, 21.63, repro,
2016-06-06,6.44, 11.15, -22.90, 3.25, 2.91, 13.67, repro,
2016-06-07,-4.99, 2.35, 4.16, 3.44, 3.00, 13.61, repro,
2016-06-08,-5.91, 4.92, 0.97, 4.03, 3.40, 16.61, repro,
2016-06-09,-2.02, 8.10, -4.08, 3.47, 2.95, 14.59, repro,
2016-06-10,-1.70, 2.88, 7.74, 3.41, 2.96, 14.33, repro,
2016-06-11,0.40, 7.49, -19.30, 3.29, 2.88, 14.40, repro,
2016-06-12,-4.67, 6.81, -33.57, 3.86, 3.29, 17.47, repro,
2016-06-13,-2.89, 3.07, -30.76, 3.40, 2.96, 13.89, repro,
2016-06-14,-2.12, 15.67, 0.02, 3.64, 3.09, 15.91, repro,
2016-06-15,0.73, 6.59, -19.88, 3.21, 2.91, 13.83, repro,
2016-06-16,-0.90, 5.57, -17.12, 3.91, 3.13, 16.53, repro,
2016-06-17,-2.41, 6.57, 0.29, 3.79, 3.19, 16.16, repro,
2016-06-18,0.33, 2.80, -25.31, 3.16, 2.72, 13.04, repro,
2016-06-19,-3.52, 4.33, -3.62, 3.16, 2.75, 13.16, repro,
2016-06-20,2.27, 5.00, -33.00, 3.29, 3.00, 14.39, repro,
2016-06-21,-4.51, 9.50, 3.36, 3.45, 2.93, 13.33, repro,
2016-06-22,-4.29, 2.84, -25.47, 3.35, 3.06, 14.70, repro,
2016-06-23,-2.51, 3.95, -39.86, 4.09, 3.46, 17.05, repro,
2016-06-24,-3.65, 6.48, -5.57, 3.22, 2.80, 13.09, repro,
2016-06-25,-2.35, 3.53, -8.50, 3.32, 3.04, 14.28, repro,
2016-06-26,-0.18, 6.62, -4.84, 3.05, 2.78, 13.11, repro,
2016-06-27,-6.78, 4.63, -11.49, 3.20, 2.83, 13.12, repro,
2016-06-28,-3.11, 6.14, -8.57, 4.09, 3.63, 18.55, repro,
2016-06-29,-0.01, 7.99, -9.95, 3.82, 3.54, 16.53, repro,
2016-06-30,-1.48, 2.86, -22.79, 3.19, 2.90, 13.30, repro,
2016-07-01,-1.27, 2.31, -14.91, 3.31, 2.84, 13.65, repro,
2016-07-02,-1.74, 6.51, -18.85, 3.18, 2.80, 13.26, repro,
2016-07-03,-3.10, 6.99, 1.94, 3.37, 3.00, 13.98, repro,
2016-07-04,-2.25, 11.44, -15.62, 3.21, 2.99, 14.03, repro,
2016-07-05,-4.89, 3.49, 0.94, 3.50, 3.00, 14.08, repro,
2016-07-06,-3.47, 6.31, 1.07, 3.66, 3.17, 14.92, repro,
2016-07-07,-0.96, 5.24, -26.24, 3.25, 2.82, 13.20, repro,
2016-07-08,-2.01, 7.67, -22.87, 3.28, 2.84, 13.57, repro,
2016-07-09,-6.56, 11.39, -0.49, 3.31, 3.07, 14.63, repro,
2016-07-10,-3.62, 5.42, -4.69, 3.29, 2.81, 13.49, repro,
2016-07-11,1.87, 4.63, -13.44, 3.32, 2.85, 14.08, repro,
2016-07-12,2.36, 10.60, -19.09, 3.76, 3.18, 15.88, repro,
2016-07-13,0.05, 8.97, -11.60, 3.23, 2.78, 13.11, repro,
2016-07-14,-4.45, 6.87, -6.98, 3.14, 2.72, 12.50, repro,
2016-07-15,-4.72, 9.78, -5.72, 3.14, 2.80, 13.26, repro,
2016-07-16,0.06, 8.49, -28.46, 3.34, 2.81, 13.34, repro,
2016-07-17,-0.96, 7.45, -8.85, 3.41, 3.04, 14.57, repro,
2016-07-18,-8.68, 6.73, 5.76, 4.71, 4.61, 20.66, repro,
2016-07-19,-4.51, 6.14, -5.85, 3.49, 2.88, 13.93, repro,
2016-07-20,-1.52, 3.80, -29.46, 4.30, 3.86, 21.54, repro,
2016-07-21,-2.13, 6.58, -31.11, 3.38, 2.82, 14.09, repro,
2016-07-22,-0.27, 9.95, -39.42, 3.36, 2.96, 14.53, repro,
2016-07-23,1.33, 9.70, -23.58, 3.41, 2.86, 13.28, repro,
2016-07-24,-7.64, 8.18, 0.29, 3.25, 2.73, 12.95, repro,
2016-07-25,-2.92, 1.80, 4.10, 3.36, 2.80, 13.83, repro,
2016-07-26,-3.76, 11.04, 6.45, 3.40, 2.96, 14.63, repro,
2016-07-27,-3.78, 4.17, -29.94, 3.43, 2.95, 13.91, repro,
2016-07-28,-4.23, 15.95, -7.69, 3.79, 3.32, 16.91, repro,
2016-07-29,-3.72, 8.45, -3.45, 3.21, 2.79, 13.77, repro,
2016-07-30,-7.68, 10.04, 18.30, 3.45, 2.98, 14.39, repro,
2016-07-31,0.60, 11.41, -13.37, 3.29, 2.91, 14.15, repro,
2016-08-01,-1.89, 6.96, -23.59, 3.31, 2.96, 13.53, repro,
2016-08-02,-3.25, 4.51, -30.46, 3.62, 3.24, 15.39, repro,
2016-08-03,-1.18, 12.75, -28.30, 3.50, 2.98, 14.73, repro,
2016-08-04,-5.35, 12.77, 15.31, 3.46, 2.99, 14.80, repro,
2016-08-06,-0.11, 6.27, -21.52, 3.42, 2.99, 14.38, repro,
2016-08-07,-3.68, 7.24, -1.81, 3.48, 2.77, 13.98, repro,
2016-08-08,-1.07, 12.97, -23.47, 3.50, 3.10, 14.52, repro,
2016-08-09,0.50, 9.46, -22.72, 3.55, 3.08, 14.71, repro,
2016-08-10,-6.26, 6.53, 10.98, 3.51, 3.15, 15.49, repro,
2016-08-11,-2.57, 6.99, -20.47, 3.36, 2.97, 14.09, repro,
2016-08-12,-1.68, 15.22, -17.51, 4.01, 3.46, 17.47, repro,
2016-08-13,-3.10, 9.48, -5.17, 3.33, 2.87, 13.54, repro,
2016-08-14,-6.20, 9.36, -27.27, 3.31, 2.98, 13.98, repro,
2016-08-15,-3.16, 11.88, -4.96, 3.48, 3.04, 14.56, repro,
2016-08-16,-4.02, 8.10, -1.08, 3.80, 3.65, 17.28, repro,
2016-08-17,5.44, 13.22, -41.05, 4.35, 4.40, 20.79, repro,
2016-08-18,-0.38, 10.13, -19.46, 3.44, 3.02, 14.50, repro,
2016-08-19,-2.89, 13.92, -9.37, 3.48, 3.39, 14.70, repro,
2016-08-20,-0.84, 6.76, -5.00, 3.46, 2.95, 13.83, repro,
2016-08-21,0.08, 7.84, 5.03, 4.42, 3.59, 17.47, repro,
2016-08-22,-5.75, 6.40, 2.61, 3.22, 2.89, 13.94, repro,
2016-08-23,-1.85, 10.99, -17.80, 3.53, 3.14, 14.39, repro,
2016-08-24,-1.94, 9.77, -38.42, 3.90, 3.49, 16.56, repro,
2016-08-25,-1.18, 8.17, -27.36, 4.11, 3.70, 16.18, repro,
2016-08-26,0.42, 6.61, -17.10, 3.44, 3.04, 14.59, repro,
2016-08-27,-4.06, 6.16, -30.36, 3.60, 3.15, 15.83, repro,
2016-08-28,-3.29, 5.07, -9.79, 3.70, 3.28, 15.62, repro,
2016-08-29,-2.61, 13.57, -20.39, 3.59, 3.40, 15.73, repro,
2016-08-30,-4.04, 13.56, -23.34, 3.99, 3.83, 17.06, repro,
2016-08-31,4.04, 6.01, -69.81, 4.60, 4.29, 20.78, repro,
2016-09-01,-0.81, 10.89, 1.79, 3.94, 3.53, 16.70, repro,
2016-09-02,-2.38, 9.03, -8.46, 3.82, 3.46, 16.62, repro,
2016-09-03,-4.67, 9.31, 3.35, 3.88, 3.54, 16.45, repro,
2016-09-04,3.31, 7.99, -28.59, 3.98, 3.61, 18.73, repro,
2016-09-05,0.95, 5.12, -46.08, 4.09, 3.51, 17.64, repro,
2016-09-06,-3.35, 10.76, -10.47, 3.65, 3.45, 15.88, repro,
2016-09-07,1.35, 10.23, -33.77, 3.68, 3.42, 16.80, repro,
2016-09-08,-3.89, 8.49, -2.58, 4.81, 4.64, 20.60, repro,
2016-09-09,0.92, 3.35, -3.17, 4.06, 3.53, 17.03, repro,
2016-09-10,-1.93, 7.10, -37.46, 4.46, 3.77, 19.65, repro,